SCP
0 0 0 0 0 0 0 0 0 0 0 0 0 0 0 0 0 0 0 0 0 0 0 0 0 0 0 0 0 0 0 0 0 0 0 0 0 0 0 0 0 0 0
0 0 0 0 0 0 1 1 1 0 0 0 0 0 0 0 0 0 0 0 0 0 0 0 0 0 0 0 0 0 0 0 0 0 0 0 0 0 0 0 0 0 0
0 0 0 0 0 0 0 1 1 1 0 0 0 0 0 0 0 0 0 0 0 0 0 0 0 0 0 0 0 0 0 0 0 0 0 0 0 0 0 0 0 0 0
0 0 0 0 0 0 0 0 1 0 0 0 0 0 0 0 0 0 0 0 0 0 0 0 0 0 0 0 0 0 0 0 0 0 0 0 0 0 0 0 0 0 0
0 0 0 0 0 0 0 0 0 1 0 0 0 0 0 0 0 0 0 0 0 0 0 0 0 0 0 0 0 0 0 0 0 0 0 0 0 0 0 0 0 0 0
0 0 0 0 0 0 0 0 0 0 0 0 0 0 0 0 0 0 0 0 0 0 0 0 0 0 0 0 0 0 0 0 0 0 0 0 0 0 0 0 0 0 0
0 0 0 0 0 0 0 0 0 0 0 0 0 0 0 0 0 0 0 0 0 0 0 0 0 0 0 0 0 0 0 0 0 0 0 0 0 0 0 0 0 0 0
0 0 0 0 0 0 0 0 0 0 0 0 0 0 0 0 0 0 0 0 0 0 0 0 0 0 0 0 0 0 0 0 0 0 0 0 0 0 0 0 0 0 0
0 0 0 0 0 0 0 0 0 0 0 0 0 0 0 0 0 0 0 0 0 0 0 0 0 0 0 0 0 0 0 0 0 0 0 0 0 0 0 0 0 0 0
0 0 0 0 0 0 0 0 0 0 1 0 0 0 0 0 0 0 0 0 0 0 0 0 0 0 0 0 0 0 0 0 0 0 0 0 0 0 0 0 0 0 0
0 0 0 0 0 0 0 0 0 0 0 0 0 0 0 0 0 0 0 0 0 0 0 0 0 0 0 0 0 0 0 0 0 0 0 0 0 0 0 0 0 0 0
0 0 0 0 0 0 0 0 0 0 0 0 0 0 0 0 0 0 0 0 0 0 0 0 0 0 0 0 0 0 0 0 0 0 0 0 0 0 0 0 0 0 0
0 0 0 0 0 0 0 0 0 0 0 0 0 0 0 0 0 0 0 0 0 0 0 0 0 0 0 0 0 0 0 0 0 0 0 0 0 0 0 0 0 0 0
0 0 0 0 0 0 0 0 0 0 0 0 0 0 0 0 0 0 0 0 0 0 0 0 0 0 0 0 0 0 0 0 0 0 0 0 0 0 0 0 0 0 0
0 0 0 0 0 0 0 0 0 0 0 0 0 0 0 0 0 0 0 0 0 0 0 0 0 0 0 0 0 0 0 0 0 0 0 0 0 0 0 0 0 0 0
0 0 0 0 0 0 0 0 0 0 0 0 0 0 0 0 0 0 0 0 0 0 0 0 0 0 0 0 0 0 0 0 0 0 0 0 0 0 0 0 0 0 0
0 0 0 0 0 0 0 0 0 0 0 0 0 0 0 0 0 0 0 0 0 0 0 0 0 0 0 0 0 0 0 0 0 0 0 0 0 0 0 0 0 0 0
0 0 0 0 0 0 0 0 0 0 0 0 0 0 0 0 0 0 0 0 0 0 0 0 0 0 0 0 0 0 0 0 0 0 0 0 0 0 0 0 0 0 0
0 0 0 0 0 0 0 0 0 0 0 0 0 0 0 0 0 0 0 0 0 0 0 0 0 0 0 0 0 0 0 0 0 0 0 0 0 0 0 0 0 0 0
0 0 0 0 0 0 0 0 0 -0 0 0 0 0 0 0 0 0 0 0 0 0 0 0 0 0 0 0 0 0 0 0 0 0 0 0 0 0 0 0 0 0 0
0 0 0 0 0 0 0 0 0 0 0 0 0 0 0 0 0 0 0 0 0 0 0 0 0 0 0 0 0 0 0 0 0 0 0 0 0 0 0 0 0 0 0
0 0 0 0 0 0 0 0 0 0 0 0 0 0 0 0 0 0 0 0 0 0 0 0 0 0 0 0 0 0 0 0 0 0 0 0 0 0 0 0 0 0 0
0 0 0 0 -0 -0 0 0 0 0 0 0 0 0 0 0 0 0 0 0 0 0 0 0 0 0 0 0 0 0 0 0 0 0 0 0 0 0 0 0 0 0 0
0 0 0 0 0 0 0 0 0 0 0 0 0 0 0 0 0 0 0 0 0 0 0 0 0 0 0 0 0 0 0 0 0 0 0 0 0 0 0 0 0 0 0
0 0 0 0 0 0 0 0 0 0 0 0 0 0 0 0 0 0 0 0 0 0 0 0 0 0 0 0 0 0 0 0 0 0 0 0 0 0 0 0 0 0 0
-0 -0 0 0 0 0 -0 -0 0 0 0 0 0 0 0 0 0 0 0 0 0 0 0 0 0 0 0 0 0 0 0 0 0 0 0 0 0 0 0 0 0 0 0
Wind_Speed_500mb
65 58 57 56 50 81 78 77 74 73 73 70 64 65 62 58 55 54 57 67 63 57 50 54 61 61 53 41 54 54 60 56 52 48 44 43 40 38 33 31 28 27 25
67 67 65 62 61 48 88 82 81 80 79 76 72 70 70 64 57 57 58 61 73 67 58 54 54 51 55 46 39 58 58 60 55 52 50 50 50 47 42 38 34 34 32
70 71 71 73 65 65 50 83 89 86 85 83 79 76 77 71 64 61 55 62 70 73 65 59 52 54 48 48 49 46 52 58 57 52 51 53 54 51 48 46 44 43 40
71 74 76 74 71 70 61 61 73 92 90 91 87 87 85 80 70 65 58 59 69 77 73 64 56 53 49 56 53 55 50 50 54 56 52 54 56 55 55 53 51 51 50
72 73 78 78 73 70 69 85 39 81 81 102 100 97 92 91 79 70 61 56 61 70 73 66 61 57 54 59 58 55 57 54 50 52 52 54 56 57 58 59 57 56 59
76 72 76 78 73 69 66 61 64 64 88 86 89 93 101 97 87 74 64 57 57 66 72 69 62 60 57 55 67 63 56 54 53 53 56 58 61 60 58 58 58 58 57
76 74 73 75 75 74 72 56 58 64 98 62 65 54 65 92 98 74 67 61 63 62 69 68 66 65 61 58 62 70 73 68 64 60 59 58 58 61 60 59 59 60 60
69 76 71 72 74 72 70 64 54 58 71 83 73 63 41 52 72 75 71 67 68 67 67 67 68 70 70 66 64 62 68 74 75 74 71 67 65 64 64 67 67 64 62
57 65 68 69 69 69 68 67 66 62 72 73 79 64 19 28 64 73 86 85 78 74 74 74 74 75 78 77 71 68 64 66 69 69 69 71 73 72 71 70 65 64 64
62 63 62 62 65 68 69 69 72 68 69 82 80 88 71 46 37 42 87 95 86 79 78 79 81 82 82 80 76 73 68 68 67 67 68 69 70 71 68 65 63 64 66
71 63 63 59 60 65 65 64 74 61 70 70 94 87 87 71 67 46 49 77 88 77 75 83 82 82 83 82 79 74 71 68 68 68 69 69 70 69 68 67 65 65 64
65 55 55 56 55 64 60 59 69 69 66 74 77 83 87 93 88 71 57 63 69 76 81 82 71 71 78 73 75 72 67 65 64 66 68 70 70 71 71 71 71 68 66
55 51 51 51 49 50 51 54 61 71 67 67 73 90 89 95 86 85 69 60 64 68 60 67 76 79 70 74 75 71 69 71 70 71 70 68 68 67 69 71 72 70 71
57 48 46 51 52 49 50 46 51 60 72 71 73 84 92 99 93 92 87 73 56 66 72 71 77 66 62 70 75 76 71 68 68 63 64 65 66 66 66 66 67 68 70
37 40 43 53 53 52 47 47 45 50 52 66 64 74 64 82 88 86 88 85 72 47 66 70 58 59 54 51 50 62 65 64 62 61 58 58 60 61 62 64 66 69 69
25 29 40 45 48 41 41 43 52 49 57 56 62 57 70 72 80 78 76 83 80 70 51 62 56 54 56 62 61 55 57 60 65 65 63 61 61 62 63 61 66 63 62
27 17 33 31 40 40 38 43 38 46 52 58 57 68 66 68 81 82 81 86 92 85 67 51 51 49 53 50 48 48 48 49 52 58 57 56 56 56 59 59 56 58 45
27 26 26 34 37 32 31 36 36 34 43 54 56 60 61 60 73 86 86 92 89 84 80 64 52 52 50 44 46 44 39 37 38 42 46 48 48 47 42 38 28 33 39
6 10 15 18 18 22 27 30 32 29 35 45 43 54 57 54 68 86 91 94 88 74 83 73 56 51 49 46 44 40 37 32 30 30 27 27 29 34 35 38 40 42 31
6 10 10 14 16 23 25 23 22 25 30 37 39 46 48 61 61 82 96 87 76 75 75 64 61 58 56 52 48 46 43 38 35 41 36 36 37 35 33 30 24 24 25
9 13 10 15 20 20 23 20 27 28 24 32 38 42 43 49 71 81 98 94 88 79 69 61 72 63 65 62 58 55 50 45 46 43 42 40 36 32 30 29 29 30 32
6 10 12 14 13 17 15 15 24 29 25 34 30 31 40 53 48 72 83 98 88 81 68 74 71 63 63 63 63 59 52 52 44 43 40 34 29 29 31 32 31 25 22
7 6 7 9 10 12 19 20 18 21 17 17 20 18 21 23 31 49 82 75 71 62 56 66 60 53 56 60 61 57 47 44 35 33 32 28 26 22 21 20 19 18 19
14 14 12 13 11 14 11 3 16 24 23 23 19 21 15 18 30 38 53 57 48 46 41 34 29 30 34 42 40 38 39 33 27 28 29 28 29 26 23 23 20 19 19
35 41 42 44 42 35 24 28 33 44 55 58 53 48 46 37 33 35 38 45 48 52 38 29 26 30 36 38 32 33 32 29 29 29 28 23 29 25 22 20 19 20 23
46 49 54 54 51 52 50 54 56 57 58 59 59 58 51 51 37 28 28 29 38 44 40 41 38 39 39 37 32 27 25 24 27 25 26 23 28 27 19 25 25 27 24
Wind_Direction_500mb
258 255 242 241 249 241 242 241 237 235 236 236 236 232 234 238 237 231 228 231 234 233 228 220 222 225 235 238 222 231 230 229 230 236 238 239 237 234 239 245 251 250 249
259 255 254 246 244 248 245 242 242 239 237 237 235 233 235 238 239 236 234 233 232 234 233 230 227 229 231 231 235 229 235 231 234 239 242 240 242 245 243 244 249 256 257
256 255 254 250 242 240 246 244 239 243 241 237 237 236 236 237 238 237 239 234 227 232 234 233 232 234 232 225 236 239 236 234 234 240 244 242 242 243 245 248 254 257 256
257 254 252 251 250 248 240 238 247 245 240 238 236 236 236 235 237 237 237 235 230 234 234 233 231 234 238 223 232 237 237 232 235 241 241 242 243 246 247 251 253 254 259
258 256 252 250 250 249 247 245 239 243 227 231 234 237 238 235 234 234 235 235 233 229 230 235 237 238 242 227 230 236 238 236 235 238 243 248 247 246 249 253 256 256 255
259 257 254 251 248 248 250 249 249 240 232 236 238 242 236 237 233 231 234 236 235 234 234 236 238 241 240 238 230 234 236 237 239 244 246 249 249 251 251 253 256 258 259
262 254 253 250 245 245 245 242 239 237 242 225 209 223 223 234 234 228 232 237 238 240 237 239 240 244 244 242 240 238 237 238 241 245 247 250 249 252 255 257 257 256 258
266 254 252 249 244 244 244 236 235 237 235 227 221 217 210 214 230 229 228 238 239 242 242 243 245 248 249 246 244 245 243 242 244 245 248 249 253 254 257 260 261 261 261
271 259 252 249 245 239 241 234 227 230 230 222 220 209 194 207 227 242 240 243 239 241 243 245 247 251 251 250 248 247 245 245 245 248 248 249 251 254 259 260 260 258 259
277 260 251 244 243 234 235 233 228 227 228 219 226 227 224 222 202 220 234 237 235 238 241 247 250 251 251 249 248 247 246 247 249 250 251 251 252 254 256 256 259 260 260
281 263 248 238 239 230 233 234 230 225 227 225 224 218 221 221 219 217 218 225 230 238 246 247 252 253 253 250 249 247 247 247 249 252 253 253 253 254 254 254 257 259 261
281 263 242 237 236 227 231 237 231 231 229 232 227 226 230 214 216 209 213 220 227 235 241 249 241 255 253 252 251 249 247 248 249 252 253 253 253 252 253 253 253 254 255
278 259 232 234 221 221 233 236 234 229 232 232 230 226 227 224 215 226 219 225 241 237 237 243 245 246 253 246 246 247 247 248 248 249 249 249 251 252 253 253 254 253 254
271 252 228 225 228 231 223 231 238 234 232 236 239 233 229 230 234 228 228 224 218 231 243 238 236 241 248 255 252 247 248 250 251 248 245 245 247 251 251 253 254 253 254
253 242 224 224 220 219 228 234 237 238 238 239 239 237 234 234 227 232 233 234 225 224 229 231 229 243 248 242 237 245 246 248 245 253 248 247 248 250 252 254 258 259 258
250 238 224 216 215 218 233 240 236 243 237 236 242 244 239 232 231 242 243 237 232 226 221 223 232 231 246 247 247 245 249 250 254 256 253 248 248 252 255 257 261 261 266
255 223 208 222 236 236 240 243 250 242 242 244 240 240 242 243 240 239 243 242 236 233 225 226 223 229 234 230 234 243 245 253 257 263 260 254 255 253 249 249 256 265 264
247 227 231 227 237 234 235 241 249 251 243 242 242 244 245 249 244 234 243 242 236 233 231 230 219 217 219 229 237 241 240 248 253 254 252 249 250 249 252 249 238 237 223
270 241 221 219 239 252 251 248 250 256 255 246 252 249 253 257 242 234 240 228 237 236 241 232 218 221 226 216 218 222 226 231 229 228 221 198 198 194 194 197 194 184 187
279 253 248 238 249 245 254 258 271 268 268 256 242 248 252 249 249 235 238 234 226 234 223 221 228 228 209 204 206 212 200 198 192 181 177 177 179 182 185 189 202 225 236
332 333 277 257 255 256 254 270 286 282 273 265 247 255 251 245 239 239 233 236 232 219 221 221 225 210 202 193 199 197 190 180 177 178 180 183 190 198 211 218 221 230 238
355 339 341 322 313 293 275 268 275 275 262 249 259 252 249 250 263 245 244 233 236 218 220 214 211 202 198 199 193 190 190 180 175 184 188 193 203 217 232 237 233 226 219
22 1 0 352 333 329 324 301 268 232 221 218 214 216 233 221 230 219 220 210 203 197 203 205 197 199 199 197 192 181 183 191 195 185 190 188 191 194 193 190 194 187 182
63 68 68 66 58 46 9 205 185 167 150 132 136 131 132 143 156 157 167 164 151 151 164 161 163 177 190 181 188 183 183 190 183 178 180 174 176 177 181 184 184 195 198
97 96 97 95 89 92 108 128 140 129 118 107 101 96 100 107 105 128 122 131 127 122 120 130 143 157 158 165 171 180 180 185 175 180 180 180 174 183 185 195 201 214 220
104 103 97 91 93 95 103 104 106 106 102 99 98 93 85 86 89 95 116 114 132 120 132 134 140 146 153 160 163 164 172 185 182 174 184 180 187 194 201 212 210 220 228
Wind_Speed_850mb
65 58 57 56 50 81 78 77 74 73 73 70 64 65 62 58 55 54 57 67 63 57 50 54 61 61 53 41 54 54 60 56 52 48 44 43 40 38 33 31 28 27 25
67 67 65 62 61 48 88 82 81 80 79 76 72 70 70 64 57 57 58 61 73 67 58 54 54 51 55 46 39 58 58 60 55 52 50 50 50 47 42 38 34 34 32
70 71 71 73 65 65 50 83 89 86 85 83 79 76 77 71 64 61 55 62 70 73 65 59 52 54 48 48 49 46 52 58 57 52 51 53 54 51 48 46 44 43 40
71 74 76 74 71 70 61 61 73 92 90 91 87 87 85 80 70 65 58 59 69 77 73 64 56 53 49 56 53 55 50 50 54 56 52 54 56 55 55 53 51 51 50
72 73 78 78 73 70 69 85 39 81 81 102 100 97 92 91 79 70 61 56 61 70 73 66 61 57 54 59 58 55 57 54 50 52 52 54 56 57 58 59 57 56 59
76 72 76 78 73 69 66 61 64 64 88 86 89 93 101 97 87 74 64 57 57 66 72 69 62 60 57 55 67 63 56 54 53 53 56 58 61 60 58 58 58 58 57
76 74 73 75 75 74 72 56 58 64 98 62 65 54 65 92 98 74 67 61 63 62 69 68 66 65 61 58 62 70 73 68 64 60 59 58 58 61 60 59 59 60 60
69 76 71 72 74 72 70 64 54 58 71 83 73 63 41 52 72 75 71 67 68 67 67 67 68 70 70 66 64 62 68 74 75 74 71 67 65 64 64 67 67 64 62
57 65 68 69 69 69 68 67 66 62 72 73 79 64 19 28 64 73 86 85 78 74 74 74 74 75 78 77 71 68 64 66 69 69 69 71 73 72 71 70 65 64 64
62 63 62 62 65 68 69 69 72 68 69 82 80 88 71 46 37 42 87 95 86 79 78 79 81 82 82 80 76 73 68 68 67 67 68 69 70 71 68 65 63 64 66
71 63 63 59 60 65 65 64 74 61 70 70 94 87 87 71 67 46 49 77 88 77 75 83 82 82 83 82 79 74 71 68 68 68 69 69 70 69 68 67 65 65 64
65 55 55 56 55 64 60 59 69 69 66 74 77 83 87 93 88 71 57 63 69 76 81 82 71 71 78 73 75 72 67 65 64 66 68 70 70 71 71 71 71 68 66
55 51 51 51 49 50 51 54 61 71 67 67 73 90 89 95 86 85 69 60 64 68 60 67 76 79 70 74 75 71 69 71 70 71 70 68 68 67 69 71 72 70 71
57 48 46 51 52 49 50 46 51 60 72 71 73 84 92 99 93 92 87 73 56 66 72 71 77 66 62 70 75 76 71 68 68 63 64 65 66 66 66 66 67 68 70
37 40 43 53 53 52 47 47 45 50 52 66 64 74 64 82 88 86 88 85 72 47 66 70 58 59 54 51 50 62 65 64 62 61 58 58 60 61 62 64 66 69 69
25 29 40 45 48 41 41 43 52 49 57 56 62 57 70 72 80 78 76 83 80 70 51 62 56 54 56 62 61 55 57 60 65 65 63 61 61 62 63 61 66 63 62
27 17 33 31 40 40 38 43 38 46 52 58 57 68 66 68 81 82 81 86 92 85 67 51 51 49 53 50 48 48 48 49 52 58 57 56 56 56 59 59 56 58 45
27 26 26 34 37 32 31 36 36 34 43 54 56 60 61 60 73 86 86 92 89 84 80 64 52 52 50 44 46 44 39 37 38 42 46 48 48 47 42 38 28 33 39
6 10 15 18 18 22 27 30 32 29 35 45 43 54 57 54 68 86 91 94 88 74 83 73 56 51 49 46 44 40 37 32 30 30 27 27 29 34 35 38 40 42 31
6 10 10 14 16 23 25 23 22 25 30 37 39 46 48 61 61 82 96 87 76 75 75 64 61 58 56 52 48 46 43 38 35 41 36 36 37 35 33 30 24 24 25
9 13 10 15 20 20 23 20 27 28 24 32 38 42 43 49 71 81 98 94 88 79 69 61 72 63 65 62 58 55 50 45 46 43 42 40 36 32 30 29 29 30 32
6 10 12 14 13 17 15 15 24 29 25 34 30 31 40 53 48 72 83 98 88 81 68 74 71 63 63 63 63 59 52 52 44 43 40 34 29 29 31 32 31 25 22
7 6 7 9 10 12 19 20 18 21 17 17 20 18 21 23 31 49 82 75 71 62 56 66 60 53 56 60 61 57 47 44 35 33 32 28 26 22 21 20 19 18 19
14 14 12 13 11 14 11 3 16 24 23 23 19 21 15 18 30 38 53 57 48 46 41 34 29 30 34 42 40 38 39 33 27 28 29 28 29 26 23 23 20 19 19
35 41 42 44 42 35 24 28 33 44 55 58 53 48 46 37 33 35 38 45 48 52 38 29 26 30 36 38 32 33 32 29 29 29 28 23 29 25 22 20 19 20 23
46 49 54 54 51 52 50 54 56 57 58 59 59 58 51 51 37 28 28 29 38 44 40 41 38 39 39 37 32 27 25 24 27 25 26 23 28 27 19 25 25 27 24
Wind_Direction_850mb
258 255 242 241 249 241 242 241 237 235 236 236 236 232 234 238 237 231 228 231 234 233 228 220 222 225 235 238 222 231 230 229 230 236 238 239 237 234 239 245 251 250 249
259 255 254 246 244 248 245 242 242 239 237 237 235 233 235 238 239 236 234 233 232 234 233 230 227 229 231 231 235 229 235 231 234 239 242 240 242 245 243 244 249 256 257
256 255 254 250 242 240 246 244 239 243 241 237 237 236 236 237 238 237 239 234 227 232 234 233 232 234 232 225 236 239 236 234 234 240 244 242 242 243 245 248 254 257 256
257 254 252 251 250 248 240 238 247 245 240 238 236 236 236 235 237 237 237 235 230 234 234 233 231 234 238 223 232 237 237 232 235 241 241 242 243 246 247 251 253 254 259
258 256 252 250 250 249 247 245 239 243 227 231 234 237 238 235 234 234 235 235 233 229 230 235 237 238 242 227 230 236 238 236 235 238 243 248 247 246 249 253 256 256 255
259 257 254 251 248 248 250 249 249 240 232 236 238 242 236 237 233 231 234 236 235 234 234 236 238 241 240 238 230 234 236 237 239 244 246 249 249 251 251 253 256 258 259
262 254 253 250 245 245 245 242 239 237 242 225 209 223 223 234 234 228 232 237 238 240 237 239 240 244 244 242 240 238 237 238 241 245 247 250 249 252 255 257 257 256 258
266 254 252 249 244 244 244 236 235 237 235 227 221 217 210 214 230 229 228 238 239 242 242 243 245 248 249 246 244 245 243 242 244 245 248 249 253 254 257 260 261 261 261
271 259 252 249 245 239 241 234 227 230 230 222 220 209 194 207 227 242 240 243 239 241 243 245 247 251 251 250 248 247 245 245 245 248 248 249 251 254 259 260 260 258 259
277 260 251 244 243 234 235 233 228 227 228 219 226 227 224 222 202 220 234 237 235 238 241 247 250 251 251 249 248 247 246 247 249 250 251 251 252 254 256 256 259 260 260
281 263 248 238 239 230 233 234 230 225 227 225 224 218 221 221 219 217 218 225 230 238 246 247 252 253 253 250 249 247 247 247 249 252 253 253 253 254 254 254 257 259 261
281 263 242 237 236 227 231 237 231 231 229 232 227 226 230 214 216 209 213 220 227 235 241 249 241 255 253 252 251 249 247 248 249 252 253 253 253 252 253 253 253 254 255
278 259 232 234 221 221 233 236 234 229 232 232 230 226 227 224 215 226 219 225 241 237 237 243 245 246 253 246 246 247 247 248 248 249 249 249 251 252 253 253 254 253 254
271 252 228 225 228 231 223 231 238 234 232 236 239 233 229 230 234 228 228 224 218 231 243 238 236 241 248 255 252 247 248 250 251 248 245 245 247 251 251 253 254 253 254
253 242 224 224 220 219 228 234 237 238 238 239 239 237 234 234 227 232 233 234 225 224 229 231 229 243 248 242 237 245 246 248 245 253 248 247 248 250 252 254 258 259 258
250 238 224 216 215 218 233 240 236 243 237 236 242 244 239 232 231 242 243 237 232 226 221 223 232 231 246 247 247 245 249 250 254 256 253 248 248 252 255 257 261 261 266
255 223 208 222 236 236 240 243 250 242 242 244 240 240 242 243 240 239 243 242 236 233 225 226 223 229 234 230 234 243 245 253 257 263 260 254 255 253 249 249 256 265 264
247 227 231 227 237 234 235 241 249 251 243 242 242 244 245 249 244 234 243 242 236 233 231 230 219 217 219 229 237 241 240 248 253 254 252 249 250 249 252 249 238 237 223
270 241 221 219 239 252 251 248 250 256 255 246 252 249 253 257 242 234 240 228 237 236 241 232 218 221 226 216 218 222 226 231 229 228 221 198 198 194 194 197 194 184 187
279 253 248 238 249 245 254 258 271 268 268 256 242 248 252 249 249 235 238 234 226 234 223 221 228 228 209 204 206 212 200 198 192 181 177 177 179 182 185 189 202 225 236
332 333 277 257 255 256 254 270 286 282 273 265 247 255 251 245 239 239 233 236 232 219 221 221 225 210 202 193 199 197 190 180 177 178 180 183 190 198 211 218 221 230 238
355 339 341 322 313 293 275 268 275 275 262 249 259 252 249 250 263 245 244 233 236 218 220 214 211 202 198 199 193 190 190 180 175 184 188 193 203 217 232 237 233 226 219
22 1 0 352 333 329 324 301 268 232 221 218 214 216 233 221 230 219 220 210 203 197 203 205 197 199 199 197 192 181 183 191 195 185 190 188 191 194 193 190 194 187 182
63 68 68 66 58 46 9 205 185 167 150 132 136 131 132 143 156 157 167 164 151 151 164 161 163 177 190 181 188 183 183 190 183 178 180 174 176 177 181 184 184 195 198
97 96 97 95 89 92 108 128 140 129 118 107 101 96 100 107 105 128 122 131 127 122 120 130 143 157 158 165 171 180 180 185 175 180 180 180 174 183 185 195 201 214 220
104 103 97 91 93 95 103 104 106 106 102 99 98 93 85 86 89 95 116 114 132 120 132 134 140 146 153 160 163 164 172 185 182 174 184 180 187 194 201 212 210 220 228